.
WxDataArchive / Data Records for 2006-01-03
2006-01-02 January 2006 2006-01-04

Data Records for Tuesday, 03 January 2006

Time	Temp	Chill	HIndex	Humid	Dewpt	 Wind 	HiWind	WindDir	Rain 	Barom 
-----	----	-----	------	-----	-----	------	------	-------	-----	----- 
00:00	39.5	39.5	39.5	94	37.9	1	5	112	0.00	29.647 
00:05	39.5	39.5	39.5	94	37.9	1	4	68	0.00	29.647 
00:10	39.5	39.5	39.5	94	37.9	1	5	68	0.00	29.647 
00:15	39.5	39.5	39.5	94	37.9	1	3	45	0.01	29.648 
00:20	39.5	39.5	39.5	94	37.9	1	4	68	0.00	29.648 
00:25	39.5	39.5	39.5	94	37.9	1	2	90	0.01	29.648 
00:30	39.3	39.3	39.3	94	37.7	1	4	45	0.00	29.647 
00:35	39.3	39.3	39.3	94	37.7	3	6	68	0.00	29.647 
00:40	39.3	39.3	39.3	93	37.4	2	7	112	0.00	29.647 
00:45	39.3	39.3	39.3	93	37.4	2	5	112	0.00	29.653 
00:50	39.3	39.3	39.3	93	37.4	1	4	112	0.00	29.653 
00:55	39.3	39.3	39.3	93	37.4	2	5	112	0.00	29.653 
01:00	39.3	39.3	39.3	93	37.4	1	5	68	0.00	29.663 
01:05	39.3	39.3	39.3	93	37.4	3	9	112	0.00	29.663 
01:10	39.3	39.3	39.3	92	37.2	2	6	112	0.00	29.663 
01:15	39.2	39.2	39.2	93	37.3	1	3	90	0.00	29.665 
01:20	39.2	39.2	39.2	93	37.3	1	3	112	0.00	29.665 
01:25	39.2	39.2	39.2	92	37.1	2	4	68	0.00	29.665 
01:30	39.2	39.2	39.2	93	37.3	1	4	112	0.00	29.666 
01:35	39.2	39.2	39.2	93	37.3	3	11	68	0.00	29.666 
01:40	39.1	39.1	39.1	93	37.2	2	6	112	0.00	29.666 
01:45	39.1	39.1	39.1	93	37.2	2	11	112	0.00	29.665 
01:50	38.9	38.9	38.9	92	36.8	2	6	90	0.00	29.665 
01:55	38.9	38.9	38.9	93	37.1	2	6	90	0.00	29.665 
02:00	38.9	38.9	38.9	93	37.1	2	5	45	0.00	29.671 
02:05	38.9	38.9	38.9	93	37.1	3	6	112	0.00	29.671 
02:10	38.9	38.9	38.9	92	36.8	2	8	112	0.00	29.671 
02:15	38.9	38.9	38.9	92	36.8	2	6	45	0.00	29.675 
02:20	38.9	38.9	38.9	92	36.8	2	6	90	0.00	29.675 
02:25	38.9	38.9	38.9	92	36.8	2	5	45	0.00	29.675 
02:30	38.9	38.9	38.9	92	36.8	1	4	45	0.00	29.682 
02:35	38.9	38.9	38.9	93	37.1	1	4	112	0.00	29.682 
02:40	38.9	38.9	38.9	93	37.1	1	3	315	0.00	29.682 
02:45	39.1	39.1	39.1	93	37.2	1	3	68	0.00	29.702 
02:50	39.1	39.1	39.1	93	37.2	0	2	68	0.00	29.702 
02:55	39.1	39.1	39.1	93	37.2	1	3	158	0.00	29.702 
03:00	39.1	39.1	39.1	93	37.2	0	2	90	0.00	29.713 
03:05	39.1	39.1	39.1	93	37.2	0	3	68	0.00	29.713 
03:10	39.1	39.1	39.1	93	37.2	0	2	68	0.00	29.713 
03:15	38.9	38.9	38.9	93	37.1	1	2	68	0.00	29.715 
03:20	39.1	39.1	39.1	92	37.0	1	3	45	0.00	29.715 
03:25	39.1	39.1	39.1	92	37.0	1	2	45	0.00	29.715 
03:30	39.1	39.1	39.1	92	37.0	1	3	45	0.00	29.723 
03:35	39.1	39.1	39.1	92	37.0	1	4	45	0.00	29.723 
03:40	39.1	39.1	39.1	92	37.0	1	4	135	0.00	29.723 
03:45	39.1	39.1	39.1	92	37.0	1	3	90	0.00	29.727 
03:50	39.1	39.1	39.1	92	37.0	2	6	22	0.00	29.727 
03:55	39.1	39.1	39.1	92	37.0	2	5	68	0.00	29.727 
04:00	39.1	39.1	39.1	92	37.0	1	3	112	0.00	29.728 
04:05	39.1	39.1	39.1	92	37.0	2	6	90	0.00	29.728 
04:10	39.1	39.1	39.1	92	37.0	1	4	45	0.00	29.728 
04:15	39.1	39.1	39.1	92	37.0	1	3	68	0.00	29.729 
04:20	39.1	39.1	39.1	92	37.0	1	5	68	0.00	29.729 
04:25	39.1	39.1	39.1	92	37.0	1	6	135	0.00	29.729 
04:30	39.1	39.1	39.1	92	37.0	1	3	45	0.00	29.732 
04:35	39.1	39.1	39.1	92	37.0	2	5	68	0.00	29.732 
04:40	39.1	39.1	39.1	92	37.0	2	3	90	0.00	29.732 
04:45	39.1	39.1	39.1	92	37.0	1	5	45	0.00	29.740 
04:50	39.1	39.1	39.1	92	37.0	1	4	45	0.00	29.740 
04:55	39.1	39.1	39.1	92	37.0	0	3	68	0.00	29.740 
05:00	39.1	39.1	39.1	92	37.0	0	2	68	0.00	29.746 
05:05	38.9	38.9	38.9	92	36.8	1	3	22	0.00	29.746 
05:10	38.9	38.9	38.9	93	37.1	2	4	45	0.00	29.746 
05:15	38.9	38.9	38.9	93	37.1	0	2	135	0.00	29.758 
05:20	38.9	38.9	38.9	93	37.1	0	2	45	0.00	29.758 
05:25	38.9	38.9	38.9	93	37.1	1	3	22	0.00	29.758 
05:30	38.9	38.9	38.9	93	37.1	0	2	0	0.00	29.766 
05:35	38.9	38.9	38.9	93	37.1	1	2	0	0.00	29.766 
05:40	38.9	38.9	38.9	93	37.1	0	3	22	0.00	29.766 
05:45	38.9	38.9	38.9	93	37.1	0	2	45	0.00	29.776 
05:50	38.9	38.9	38.9	93	37.1	0	2	45	0.00	29.776 
05:55	38.9	38.9	38.9	93	37.1	1	5	45	0.00	29.776 
06:00	38.9	38.9	38.9	93	37.1	1	3	45	0.00	29.785 
06:05	38.9	38.9	38.9	93	37.1	1	5	45	0.00	29.785 
06:10	38.9	38.9	38.9	93	37.1	1	4	112	0.00	29.785 
06:15	38.9	38.9	38.9	93	37.1	1	4	45	0.00	29.795 
06:20	38.9	38.9	38.9	93	37.1	1	3	45	0.00	29.795 
06:25	38.8	38.8	38.8	93	37.0	2	5	90	0.00	29.795 
06:30	38.8	38.8	38.8	93	37.0	2	4	45	0.00	29.795 
06:35	38.8	38.8	38.8	93	37.0	1	3	68	0.00	29.795 
06:40	38.8	38.8	38.8	93	37.0	1	3	90	0.00	29.795 
06:45	38.8	38.8	38.8	93	37.0	1	3	338	0.00	29.805 
06:50	38.8	38.8	38.8	93	37.0	1	3	90	0.00	29.805 
06:55	38.8	38.8	38.8	94	37.2	1	2	45	0.00	29.805 
07:00	38.8	38.8	38.8	94	37.2	0	2	45	0.00	29.810 
07:05	38.6	38.6	38.6	94	37.0	0	2	292	0.00	29.810 
07:10	38.6	38.6	38.6	94	37.0	0	2	315	0.00	29.810 
07:15	38.6	38.6	38.6	94	37.0	1	3	45	0.00	29.810 
07:20	38.6	38.6	38.6	94	37.0	1	3	90	0.00	29.810 
07:25	38.6	38.6	38.6	94	37.0	1	6	90	0.00	29.810 
07:30	38.6	38.6	38.6	94	37.0	1	3	90	0.00	29.817 
07:35	38.5	38.5	38.5	94	36.9	1	4	68	0.00	29.817 
07:40	38.5	38.5	38.5	94	36.9	1	3	112	0.00	29.817 
07:45	38.5	38.5	38.5	94	36.9	1	4	22	0.00	29.822 
07:50	38.5	38.5	38.5	94	36.9	1	3	90	0.00	29.822 
07:55	38.5	38.5	38.5	94	36.9	1	5	90	0.00	29.822 
08:00	38.5	38.5	38.5	94	36.9	1	3	22	0.00	29.826 
08:05	38.5	38.5	38.5	94	36.9	1	3	22	0.00	29.826 
08:10	38.5	38.5	38.5	94	36.9	1	3	68	0.00	29.826 
08:15	38.5	38.5	38.5	94	36.9	1	3	68	0.00	29.834 
08:20	38.5	38.5	38.5	94	36.9	1	3	45	0.00	29.834 
08:25	38.5	38.5	38.5	94	36.9	1	2	90	0.00	29.834 
08:30	38.5	38.5	38.5	94	36.9	1	2	68	0.00	29.843 
08:35	38.5	38.5	38.5	94	36.9	0	2	68	0.00	29.843 
08:40	38.5	38.5	38.5	94	36.9	1	3	68	0.00	29.843 
08:45	38.5	38.5	38.5	94	36.9	1	3	112	0.00	29.843 
08:50	38.5	38.5	38.5	94	36.9	1	2	112	0.00	29.843 
08:55	38.5	38.5	38.5	94	36.9	1	5	90	0.00	29.843 
09:00	38.5	38.5	38.5	94	36.9	1	3	112	0.00	29.861 
09:05	38.5	38.5	38.5	94	36.9	0	2	112	0.00	29.861 
09:10	38.5	38.5	38.5	94	36.9	0	2	90	0.00	29.861 
09:15	38.6	38.6	38.6	94	37.0	0	1	90	0.00	29.878 
09:20	38.6	38.6	38.6	94	37.0	0	0	---	0.00	29.878 
09:25	38.8	38.8	38.8	94	37.2	0	1	90	0.00	29.878 
09:30	38.8	38.8	38.8	94	37.2	0	2	90	0.00	29.876 
09:35	38.8	38.8	38.8	94	37.2	0	1	90	0.00	29.876 
09:40	38.9	38.9	38.9	94	37.3	0	1	90	0.00	29.876 
09:45	38.9	38.9	38.9	94	37.3	0	2	90	0.00	29.893 
09:50	38.9	38.9	38.9	94	37.3	0	1	90	0.00	29.893 
09:55	38.9	38.9	38.9	94	37.3	0	1	90	0.00	29.893 
10:00	38.9	38.9	38.9	94	37.3	1	3	292	0.00	29.913 
10:05	38.9	38.9	38.9	94	37.3	0	2	292	0.00	29.913 
10:10	38.9	38.9	38.9	94	37.3	0	2	292	0.00	29.913 
10:15	38.9	38.9	38.9	94	37.3	0	1	292	0.00	29.920 
10:20	39.1	39.1	39.1	94	37.5	1	2	315	0.00	29.920 
10:25	39.1	39.1	39.1	94	37.5	1	2	315	0.00	29.920 
10:30	39.1	39.1	39.1	94	37.5	1	2	292	0.00	29.929 
10:35	39.1	39.1	39.1	94	37.5	1	3	292	0.00	29.929 
10:40	39.1	39.1	39.1	94	37.5	1	3	292	0.00	29.929 
10:45	39.1	39.1	39.1	95	37.8	0	1	292	0.00	29.935 
10:50	39.1	39.1	39.1	95	37.8	0	2	338	0.00	29.935 
10:55	39.1	39.1	39.1	95	37.8	0	2	338	0.00	29.935 
11:00	39.2	39.2	39.2	95	37.9	0	1	338	0.01	29.928 
11:05	39.3	39.3	39.3	95	38.0	0	0	---	0.00	29.928 
11:10	39.3	39.3	39.3	95	38.0	0	1	338	0.00	29.928 
11:15	39.5	39.5	39.5	95	38.2	0	1	338	0.00	29.934 
11:20	39.5	39.5	39.5	95	38.2	0	1	338	0.00	29.934 
11:25	39.6	39.6	39.6	95	38.3	0	2	338	0.00	29.934 
11:30	39.6	39.6	39.6	95	38.3	0	2	338	0.00	29.927 
11:35	39.6	39.6	39.6	95	38.3	0	2	338	0.00	29.927 
11:40	39.9	39.9	39.9	95	38.6	0	4	22	0.00	29.927 
11:45	40.2	40.2	40.2	95	38.9	1	3	45	0.00	29.911 
11:50	40.3	40.3	40.3	95	39.0	1	3	68	0.00	29.911 
11:55	40.5	40.5	40.5	94	38.9	1	3	45	0.00	29.911 
12:00	40.6	40.6	40.6	94	39.0	1	4	22	0.00	29.898 
12:05	40.6	40.6	40.6	93	38.7	2	5	112	0.00	29.898 
12:10	40.8	40.8	40.8	92	38.7	2	4	112	0.00	29.898 
12:15	40.9	40.9	40.9	91	38.5	2	4	90	0.00	29.889 
12:20	41.1	41.1	41.1	91	38.7	2	5	90	0.00	29.889 
12:25	41.3	41.3	41.3	91	38.9	2	5	90	0.00	29.889 
12:30	41.2	41.2	41.2	88	37.9	3	5	112	0.00	29.882 
12:35	41.3	41.3	41.3	89	38.3	1	4	90	0.00	29.882 
12:40	41.5	41.5	41.5	89	38.5	2	6	112	0.00	29.882 
12:45	41.5	41.5	41.5	89	38.5	2	5	90	0.00	29.873 
12:50	41.3	41.3	41.3	88	38.0	2	5	112	0.00	29.873 
12:55	41.2	41.2	41.2	88	37.9	3	7	90	0.00	29.873 
13:00	41.2	41.2	41.2	87	37.6	3	5	112	0.00	29.875 
13:05	41.3	41.3	41.3	88	38.0	1	4	112	0.00	29.875 
13:10	41.5	41.5	41.5	88	38.2	1	3	248	0.00	29.875 
13:15	41.5	41.5	41.5	87	37.9	1	3	248	0.00	29.904 
13:20	41.5	41.5	41.5	87	37.9	0	2	248	0.00	29.904 
13:25	41.3	41.3	41.3	87	37.7	0	2	248	0.00	29.904 
13:30	41.3	41.3	41.3	87	37.7	0	2	248	0.00	29.908 
13:35	41.5	41.5	41.5	88	38.2	0	2	248	0.00	29.908 
13:40	41.5	41.5	41.5	88	38.2	0	2	248	0.00	29.908 
13:45	41.5	41.5	41.5	88	38.2	0	1	248	0.00	29.904 
13:50	41.5	41.5	41.5	88	38.2	0	0	---	0.00	29.904 
13:55	41.5	41.5	41.5	87	37.9	1	2	248	0.00	29.904 
14:00	41.6	41.6	41.6	88	38.3	1	2	135	0.00	29.889 
14:05	41.6	41.6	41.6	87	38.0	1	3	135	0.00	29.889 
14:10	41.8	41.8	41.8	88	38.5	0	2	112	0.00	29.889 
14:15	41.9	41.9	41.9	87	38.3	0	2	112	0.00	29.902 
14:20	42.1	42.1	42.1	87	38.5	0	2	112	0.00	29.902 
14:25	42.1	42.1	42.1	88	38.8	1	2	112	0.00	29.902 
14:30	42.1	42.1	42.1	87	38.5	0	2	112	0.00	29.905 
14:35	42.1	42.1	42.1	88	38.8	1	3	112	0.00	29.905 
14:40	42.2	42.2	42.2	87	38.6	1	2	135	0.00	29.905 
14:45	42.3	42.3	42.3	87	38.7	1	2	135	0.00	29.894 
14:50	42.3	42.3	42.3	87	38.7	0	2	135	0.00	29.894 
14:55	42.3	42.3	42.3	86	38.4	0	3	225	0.00	29.894 
15:00	42.3	42.3	42.3	86	38.4	0	2	225	0.00	29.906 
15:05	42.2	42.2	42.2	87	38.6	0	2	112	0.00	29.906 
15:10	42.2	42.2	42.2	87	38.6	0	2	112	0.00	29.906 
15:15	42.2	42.2	42.2	87	38.6	0	1	112	0.00	29.918 
15:20	42.1	42.1	42.1	87	38.5	0	2	112	0.00	29.918 
15:25	42.2	42.2	42.2	88	38.9	0	1	112	0.00	29.918 
15:30	42.2	42.2	42.2	88	38.9	1	3	112	0.00	29.900 
15:35	42.3	42.3	42.3	88	39.0	0	2	112	0.00	29.900 
15:40	42.3	42.3	42.3	88	39.0	1	3	112	0.00	29.900 
15:45	42.5	42.5	42.5	88	39.2	1	3	112	0.00	29.911 
15:50	42.5	42.5	42.5	87	38.9	0	3	90	0.00	29.911 
15:55	42.3	42.3	42.3	87	38.7	1	3	90	0.00	29.911 
16:00	42.3	42.3	42.3	88	39.0	0	2	112	0.00	29.918 
16:05	42.3	42.3	42.3	88	39.0	1	2	112	0.00	29.918 
16:10	42.3	42.3	42.3	88	39.0	0	2	112	0.00	29.918 
16:15	42.3	42.3	42.3	88	39.0	0	2	112	0.00	29.919 
16:20	42.2	42.2	42.2	88	38.9	0	1	135	0.00	29.919 
16:25	42.2	42.2	42.2	88	38.9	0	1	135	0.00	29.919 
16:30	42.2	42.2	42.2	88	38.9	0	0	---	0.00	29.932 
16:35	42.2	42.2	42.2	88	38.9	0	1	135	0.00	29.932 
16:40	42.2	42.2	42.2	88	38.9	0	2	135	0.00	29.932 
16:45	42.2	42.2	42.2	88	38.9	0	2	225	0.00	29.938 
16:50	42.2	42.2	42.2	88	38.9	0	1	225	0.00	29.938 
16:55	42.2	42.2	42.2	88	38.9	0	1	225	0.00	29.938 
17:00	42.2	42.2	42.2	88	38.9	0	1	225	0.00	29.940 
17:05	42.2	42.2	42.2	88	38.9	0	1	225	0.00	29.940 
17:10	42.2	42.2	42.2	88	38.9	0	1	202	0.00	29.940 
17:15	42.2	42.2	42.2	88	38.9	0	1	202	0.00	29.939 
17:20	42.2	42.2	42.2	89	39.2	0	1	202	0.00	29.939 
17:25	42.2	42.2	42.2	89	39.2	0	1	202	0.00	29.939 
17:30	42.1	42.1	42.1	89	39.1	0	0	---	0.00	29.940 
17:35	42.1	42.1	42.1	89	39.1	0	1	202	0.00	29.940 
17:40	42.1	42.1	42.1	89	39.1	0	1	202	0.00	29.940 
17:45	42.1	42.1	42.1	89	39.1	0	0	---	0.00	29.944 
17:50	42.1	42.1	42.1	90	39.4	0	1	202	0.00	29.944 
17:55	42.1	42.1	42.1	90	39.4	0	1	202	0.00	29.944 
18:00	41.9	41.9	41.9	90	39.2	0	0	---	0.00	29.945 
18:05	41.9	41.9	41.9	90	39.2	0	1	202	0.00	29.945 
18:10	41.9	41.9	41.9	90	39.2	0	2	202	0.00	29.945 
18:15	41.9	41.9	41.9	91	39.5	0	2	202	0.00	29.937 
18:20	41.9	41.9	41.9	91	39.5	0	1	135	0.00	29.937 
18:25	41.9	41.9	41.9	91	39.5	0	1	135	0.00	29.937 
18:30	41.9	41.9	41.9	91	39.5	0	1	135	0.00	29.946 
18:35	41.9	41.9	41.9	92	39.7	0	2	135	0.00	29.946 
18:40	41.8	41.8	41.8	92	39.6	0	2	135	0.00	29.946 
18:45	41.8	41.8	41.8	92	39.6	0	1	135	0.00	29.936 
18:50	41.6	41.6	41.6	93	39.7	1	2	112	0.00	29.936 
18:55	41.6	41.6	41.6	93	39.7	1	2	135	0.00	29.936 
19:00	41.5	41.5	41.5	93	39.6	1	2	112	0.00	29.933 
19:05	41.5	41.5	41.5	93	39.6	0	2	112	0.00	29.933 
19:10	41.5	41.5	41.5	93	39.6	0	1	112	0.00	29.933 
19:15	41.5	41.5	41.5	94	39.9	0	1	112	0.00	29.942 
19:20	41.5	41.5	41.5	94	39.9	0	2	112	0.00	29.942 
19:25	41.5	41.5	41.5	94	39.9	0	1	112	0.00	29.942 
19:30	41.5	41.5	41.5	94	39.9	0	1	112	0.00	29.942 
19:35	41.5	41.5	41.5	94	39.9	0	2	112	0.00	29.942 
19:40	41.3	41.3	41.3	94	39.7	0	3	112	0.00	29.942 
19:45	41.3	41.3	41.3	94	39.7	0	1	112	0.00	29.945 
19:50	41.3	41.3	41.3	94	39.7	0	1	112	0.00	29.945 
19:55	41.3	41.3	41.3	94	39.7	0	1	112	0.00	29.945 
20:00	41.3	41.3	41.3	94	39.7	0	1	112	0.00	29.949 
20:05	41.5	41.5	41.5	94	39.9	0	1	112	0.00	29.949 
20:10	41.5	41.5	41.5	95	40.2	0	1	112	0.00	29.949 
20:15	41.5	41.5	41.5	95	40.2	0	2	112	0.00	29.948 
20:20	41.5	41.5	41.5	95	40.2	0	2	112	0.00	29.948 
20:25	41.5	41.5	41.5	95	40.2	0	2	112	0.00	29.948 
20:30	41.5	41.5	41.5	95	40.2	0	2	112	0.00	29.949 
20:35	41.5	41.5	41.5	95	40.2	0	1	112	0.00	29.949 
20:40	41.5	41.5	41.5	95	40.2	0	2	112	0.00	29.949 
20:45	41.5	41.5	41.5	95	40.2	0	2	112	0.00	29.944 
20:50	41.5	41.5	41.5	95	40.2	0	3	112	0.00	29.944 
20:55	41.5	41.5	41.5	95	40.2	0	1	112	0.00	29.944 
21:00	41.5	41.5	41.5	95	40.2	0	1	112	0.00	29.939 
21:05	41.5	41.5	41.5	95	40.2	0	1	112	0.00	29.939 
21:10	41.5	41.5	41.5	95	40.2	0	2	112	0.00	29.939 
21:15	41.5	41.5	41.5	95	40.2	0	1	112	0.00	29.941 
21:20	41.5	41.5	41.5	95	40.2	0	2	112	0.00	29.941 
21:25	41.5	41.5	41.5	95	40.2	0	2	112	0.00	29.941 
21:30	41.5	41.5	41.5	95	40.2	0	2	112	0.00	29.935 
21:35	41.5	41.5	41.5	95	40.2	0	2	112	0.00	29.935 
21:40	41.5	41.5	41.5	95	40.2	0	2	112	0.00	29.935 
21:45	41.5	41.5	41.5	95	40.2	0	1	112	0.00	29.923 
21:50	41.5	41.5	41.5	95	40.2	0	1	112	0.00	29.923 
21:55	41.6	41.6	41.6	95	40.3	0	2	112	0.00	29.923 
22:00	41.6	41.6	41.6	95	40.3	0	2	112	0.00	29.923 
22:05	41.6	41.6	41.6	95	40.3	0	1	112	0.00	29.923 
22:10	41.6	41.6	41.6	95	40.3	0	2	112	0.00	29.923 
22:15	41.6	41.6	41.6	95	40.3	1	2	112	0.00	29.917 
22:20	41.6	41.6	41.6	95	40.3	0	3	112	0.00	29.917 
22:25	41.6	41.6	41.6	95	40.3	0	3	112	0.00	29.917 
22:30	41.6	41.6	41.6	95	40.3	1	2	112	0.00	29.918 
22:35	41.6	41.6	41.6	95	40.3	0	2	112	0.00	29.918 
22:40	41.6	41.6	41.6	95	40.3	1	2	112	0.00	29.918 
22:45	41.6	41.6	41.6	95	40.3	0	2	112	0.00	29.916 
22:50	41.6	41.6	41.6	95	40.3	0	1	112	0.00	29.916 
22:55	41.6	41.6	41.6	95	40.3	0	2	112	0.00	29.916 
23:00	41.6	41.6	41.6	96	40.5	1	2	112	0.00	29.905 
23:05	41.6	41.6	41.6	96	40.5	1	2	112	0.00	29.905 
23:10	41.6	41.6	41.6	96	40.5	0	2	112	0.00	29.905 
23:15	41.8	41.8	41.8	96	40.7	1	2	112	0.00	29.901 
23:20	41.8	41.8	41.8	96	40.7	0	2	135	0.00	29.901 
23:25	41.8	41.8	41.8	96	40.7	1	2	135	0.00	29.901 
23:30	41.8	41.8	41.8	96	40.7	1	2	112	0.00	29.890 
23:35	41.8	41.8	41.8	96	40.7	1	3	90	0.00	29.890 
23:40	41.8	41.8	41.8	96	40.7	1	2	135	0.00	29.890 
23:45	41.8	41.8	41.8	96	40.7	1	2	135	0.00	29.878 
23:50	41.8	41.8	41.8	96	40.7	1	3	112	0.00	29.878 
23:55	41.9	41.9	41.9	96	40.8	1	3	135	0.00	29.878 

CoCoRaHS
IN-AL-39
A2 Web Hosting
Creative Commons License
GoDaddy
Look for:

loaded 2017-12-13 02:40:51 • last modified 2010-11-18 10:43:29
Privacy PolicyDisclaimer
• wx.awcolley.com is powered by PmWiki v.2002016 •
• all content (unless otherwise noted) © 2017 A W Colley